• In Lithuania
  • List of Countries
  • For 7 days
  • Water Temperature
  • Satellite Maps
  • Weather Map
  • Weather Widgets
  • user-avatar
    Login

    Hourly Weather Tegucigalpa

    Today, 19 September, Wednesday

    Time Temperature Precipitation Wind Pressure Humidity
    00:00 +21°C° 0.2 mm 1 mps 672 mmHg 90%
    01:00 +20°C° 0 mm 1 mps 672 mmHg 92%
    02:00 +20°C° 0 mm 1 mps 672 mmHg 93%
    03:00 +20°C° 0 mm 1 mps 672 mmHg 94%
    04:00 +20°C° 0 mm 1 mps 672 mmHg 94%
    05:00 +20°C° 0 mm 1 mps 672 mmHg 95%
    06:00 +20°C° 0 mm 1 mps 672 mmHg 95%
    07:00 +22°C° 0 mm 1 mps 673 mmHg 84%
    08:00 +25°C° 0 mm 1 mps 674 mmHg 73%
    09:00 +27°C° 0 mm 1 mps 675 mmHg 63%
    10:00 +28°C° 1.1 mm 1 mps 674 mmHg 60%
    11:00 +29°C° 1.1 mm 2 mps 674 mmHg 57%
    12:00 +30°C° 1.1 mm 2 mps 674 mmHg 55%
    13:00 +30°C° 1.4 mm 2 mps 673 mmHg 55%
    14:00 +30°C° 1.4 mm 2 mps 673 mmHg 56%
    15:00 +30°C° 1.4 mm 2 mps 672 mmHg 56%
    16:00 +28°C° 1.2 mm 2 mps 672 mmHg 65%
    17:00 +26°C° 1.2 mm 1 mps 671 mmHg 74%
    18:00 +23°C° 1.2 mm 1 mps 671 mmHg 83%
    19:00 +23°C° 2 mm 1 mps 672 mmHg 86%
    20:00 +22°C° 2 mm 1 mps 672 mmHg 89%
    21:00 +22°C° 2 mm 1 mps 673 mmHg 92%
    22:00 +21°C° 0.4 mm 1 mps 673 mmHg 93%
    23:00 +21°C° 0.4 mm 1 mps 672 mmHg 94%

    Tomorrow, 20 September, Thursday

    Time Temperature Precipitation Wind Pressure Humidity
    00:00 +21°C° 0.4 mm 1 mps 672 mmHg 95%
    01:00 +21°C° 0.1 mm 1 mps 672 mmHg 95%
    02:00 +21°C° 0.1 mm 1 mps 672 mmHg 95%
    03:00 +21°C° 0.1 mm 1 mps 671 mmHg 96%
    04:00 +21°C° 0 mm 1 mps 672 mmHg 96%
    05:00 +20°C° 0 mm 1 mps 672 mmHg 96%
    06:00 +20°C° 0 mm 1 mps 672 mmHg 96%
    07:00 +21°C° 0 mm 2 mps 673 mmHg 89%
    08:00 +24°C° 0 mm 2 mps 673 mmHg 82%
    09:00 +25°C° 0 mm 2 mps 674 mmHg 75%
    10:00 +27°C° 0.2 mm 2 mps 674 mmHg 70%
    11:00 +28°C° 0.2 mm 2 mps 674 mmHg 64%
    12:00 +29°C° 0.2 mm 2 mps 674 mmHg 59%
    13:00 +28°C° 1.7 mm 2 mps 673 mmHg 65%
    14:00 +27°C° 1.7 mm 2 mps 672 mmHg 70%
    15:00 +27°C° 1.7 mm 2 mps 672 mmHg 76%
    16:00 +25°C° 1.7 mm 2 mps 672 mmHg 81%
    17:00 +24°C° 1.7 mm 2 mps 672 mmHg 85%
    18:00 +21°C° 1.7 mm 2 mps 672 mmHg 90%
    19:00 +21°C° 0.6 mm 2 mps 673 mmHg 91%
    20:00 +21°C° 0.6 mm 2 mps 673 mmHg 92%
    21:00 +20°C° 0.6 mm 2 mps 673 mmHg 93%
    22:00 +20°C° 0.8 mm 2 mps 673 mmHg 94%
    23:00 +20°C° 0.8 mm 2 mps 673 mmHg 95%

    Day after tomorrow, 21 September, Friday

    Time Temperature Precipitation Wind Pressure Humidity
    00:00 +20°C° 0.8 mm 2 mps 673 mmHg 95%
    01:00 +20°C° 0.1 mm 2 mps 672 mmHg 96%
    02:00 +20°C° 0.1 mm 2 mps 672 mmHg 96%
    03:00 +19°C° 0.1 mm 2 mps 672 mmHg 96%
    04:00 +20°C° 0.2 mm 2 mps 672 mmHg 96%
    05:00 +20°C° 0.2 mm 2 mps 672 mmHg 95%
    06:00 +20°C° 0.2 mm 2 mps 672 mmHg 95%
    07:00 +21°C° 0.3 mm 2 mps 673 mmHg 90%
    08:00 +23°C° 0.3 mm 2 mps 674 mmHg 86%
    09:00 +25°C° 0.3 mm 2 mps 674 mmHg 81%
    10:00 +25°C° 1.2 mm 2 mps 674 mmHg 82%
    11:00 +24°C° 1.2 mm 2 mps 674 mmHg 83%
    12:00 +24°C° 1.2 mm 2 mps 673 mmHg 85%
    13:00 +25°C° 0.6 mm 2 mps 673 mmHg 83%
    14:00 +25°C° 0.6 mm 2 mps 672 mmHg 81%
    15:00 +25°C° 0.6 mm 2 mps 672 mmHg 79%
    16:00 +24°C° 0.1 mm 2 mps 672 mmHg 81%
    17:00 +23°C° 0.1 mm 1 mps 672 mmHg 83%
    18:00 +22°C° 0.1 mm 1 mps 672 mmHg 86%
    19:00 +22°C° 0.5 mm 1 mps 673 mmHg 88%
    20:00 +22°C° 0.5 mm 1 mps 673 mmHg 91%
    21:00 +21°C° 0.5 mm 1 mps 673 mmHg 94%
    22:00 +21°C° 0.1 mm 1 mps 673 mmHg 94%
    23:00 +20°C° 0.1 mm 1 mps 673 mmHg 95%

    22 September, Saturday

    Time Temperature Precipitation Wind Pressure Humidity
    00:00 +20°C° 0.1 mm 1 mps 673 mmHg 95%
    01:00 +20°C° 0 mm 1 mps 672 mmHg 95%
    02:00 +20°C° 0 mm 1 mps 672 mmHg 94%
    03:00 +20°C° 0 mm 1 mps 672 mmHg 94%
    04:00 +20°C° 0 mm 1 mps 672 mmHg 94%
    05:00 +20°C° 0 mm 1 mps 672 mmHg 93%
    06:00 +20°C° 0 mm 1 mps 672 mmHg 93%
    07:00 +22°C° 0 mm 1 mps 673 mmHg 82%
    08:00 +25°C° 0 mm 1 mps 674 mmHg 71%
    09:00 +27°C° 0 mm 1 mps 675 mmHg 60%
    10:00 +29°C° 0 mm 1 mps 674 mmHg 54%
    11:00 +31°C° 0 mm 1 mps 674 mmHg 48%
    12:00 +32°C° 0 mm 1 mps 674 mmHg 42%
    13:00 +31°C° 0.2 mm 1 mps 673 mmHg 46%
    14:00 +30°C° 0.2 mm 1 mps 672 mmHg 50%
    15:00 +30°C° 0.2 mm 1 mps 671 mmHg 54%
    16:00 +27°C° 1.4 mm 1 mps 671 mmHg 64%
    17:00 +25°C° 1.4 mm 1 mps 671 mmHg 75%
    18:00 +23°C° 1.4 mm 1 mps 672 mmHg 85%
    19:00 +22°C° 2 mm 1 mps 672 mmHg 87%
    20:00 +22°C° 2 mm 1 mps 673 mmHg 90%
    21:00 +21°C° 2 mm 1 mps 673 mmHg 92%
    22:00 +21°C° 0.5 mm 1 mps 673 mmHg 93%
    23:00 +21°C° 0.5 mm 1 mps 672 mmHg 94%

    23 September, Sunday

    Time Temperature Precipitation Wind Pressure Humidity
    00:00 +20°C° 0.5 mm 1 mps 672 mmHg 95%
    01:00 +20°C° 0.1 mm 1 mps 672 mmHg 96%
    02:00 +20°C° 0.1 mm 1 mps 671 mmHg 96%
    03:00 +20°C° 0.1 mm 1 mps 671 mmHg 96%
    04:00 +20°C° 0.1 mm 1 mps 671 mmHg 96%
    05:00 +20°C° 0.1 mm 1 mps 672 mmHg 96%
    06:00 +20°C° 0.1 mm 1 mps 672 mmHg 96%
    07:00 +22°C° 0 mm 1 mps 673 mmHg 87%
    08:00 +24°C° 0 mm 1 mps 673 mmHg 78%
    09:00 +26°C° 0 mm 1 mps 674 mmHg 69%
    10:00 +27°C° 0.3 mm 1 mps 674 mmHg 64%
    11:00 +28°C° 0.3 mm 2 mps 674 mmHg 59%
    12:00 +30°C° 0.3 mm 2 mps 673 mmHg 54%
    13:00 +29°C° 1.1 mm 2 mps 673 mmHg 58%
    14:00 +28°C° 1.1 mm 2 mps 672 mmHg 62%
    15:00 +28°C° 1.1 mm 2 mps 671 mmHg 65%
    16:00 +26°C° 1.7 mm 2 mps 672 mmHg 73%
    17:00 +24°C° 1.7 mm 1 mps 672 mmHg 82%
    18:00 +22°C° 1.7 mm 1 mps 672 mmHg 90%
    19:00 +22°C° 1.3 mm 1 mps 672 mmHg 91%
    20:00 +21°C° 1.3 mm 1 mps 672 mmHg 92%
    21:00 +21°C° 1.3 mm 1 mps 673 mmHg 94%
    22:00 +21°C° 0.4 mm 1 mps 673 mmHg 94%
    23:00 +20°C° 0.4 mm 1 mps 672 mmHg 94%

    24 September, Monday

    Time Temperature Precipitation Wind Pressure Humidity
    00:00 +20°C° 0.4 mm 1 mps 672 mmHg 94%
    01:00 +20°C° 0.3 mm 1 mps 672 mmHg 94%
    02:00 +20°C° 0.3 mm 1 mps 672 mmHg 94%
    03:00 +20°C° 0.3 mm 1 mps 672 mmHg 95%
    04:00 +19°C° 0.1 mm 1 mps 672 mmHg 95%
    05:00 +19°C° 0.1 mm 1 mps 672 mmHg 95%
    06:00 +19°C° 0.1 mm 1 mps 672 mmHg 95%
    07:00 +21°C° 0 mm 1 mps 673 mmHg 86%
    08:00 +23°C° 0 mm 2 mps 674 mmHg 77%
    09:00 +26°C° 0 mm 2 mps 675 mmHg 69%
    10:00 +27°C° 0 mm 2 mps 674 mmHg 59%
    11:00 +29°C° 0 mm 2 mps 674 mmHg 49%
    12:00 +30°C° 0 mm 2 mps 674 mmHg 39%
    13:00 +30°C° 0 mm 2 mps 673 mmHg 40%
    14:00 +30°C° 0 mm 2 mps 673 mmHg 40%
    15:00 +30°C° 0 mm 2 mps 672 mmHg 40%
    16:00 +28°C° 0.1 mm 2 mps 672 mmHg 51%
    17:00 +26°C° 0.1 mm 2 mps 672 mmHg 61%
    18:00 +24°C° 0.1 mm 1 mps 672 mmHg 72%
    19:00 +23°C° 0.1 mm 1 mps 673 mmHg 77%
    20:00 +22°C° 0.1 mm 1 mps 673 mmHg 82%
    21:00 +21°C° 0.1 mm 1 mps 673 mmHg 88%
    22:00 +21°C° 0 mm 1 mps 673 mmHg 90%
    23:00 +20°C° 0 mm 1 mps 673 mmHg 92%
    Show more